Previsão horária em Manizales

Hoje, 24 Julho, Sábado

Tempo Temperatura Precipitação Vento Pressão Humidade
00:00 +14°C° 0.3 mm 1 m/s 604 mmHg 92%
01:00 +14°C° 0 mm 1 m/s 603 mmHg 91%
02:00 +14°C° 0.3 mm 1 m/s 603 mmHg 90%
03:00 +14°C° 0.3 mm 1 m/s 603 mmHg 88%
04:00 +14°C° 0.3 mm 1 m/s 603 mmHg 86%
05:00 +15°C° 0 mm 1 m/s 603 mmHg 86%
06:00 +14°C° 0 mm 0 m/s 604 mmHg 85%
07:00 +14°C° 0 mm 0 m/s 604 mmHg 85%
08:00 +18°C° 0 mm 1 m/s 604 mmHg 82%
09:00 +19°C° 0 mm 1 m/s 605 mmHg 79%
10:00 +20°C° 0 mm 1 m/s 606 mmHg 76%
11:00 +20°C° 0.6 mm 1 m/s 605 mmHg 79%
12:00 +20°C° 0.6 mm 1 m/s 605 mmHg 82%
13:00 +20°C° 0.6 mm 1 m/s 604 mmHg 85%
14:00 +20°C° 0.8 mm 1 m/s 604 mmHg 88%
15:00 +19°C° 0.8 mm 1 m/s 604 mmHg 92%
16:00 +16°C° 0.8 mm 0 m/s 603 mmHg 95%
17:00 +16°C° 0.5 mm 0 m/s 603 mmHg 96%
18:00 +15°C° 0.5 mm 0 m/s 603 mmHg 97%
19:00 +15°C° 0.5 mm 0 m/s 604 mmHg 97%
20:00 +14°C° 0.1 mm 0 m/s 604 mmHg 97%
21:00 +14°C° 0.1 mm 0 m/s 604 mmHg 97%
22:00 +14°C° 0.1 mm 0 m/s 604 mmHg 96%
23:00 +14°C° 0.2 mm 0 m/s 604 mmHg 97%

Amanhã, 25 Julho, Domingo

Tempo Temperatura Precipitação Vento Pressão Humidade
00:00 +14°C° 0.2 mm 0 m/s 604 mmHg 97%
01:00 +14°C° 0.2 mm 0 m/s 604 mmHg 97%
02:00 +14°C° 0.1 mm 0 m/s 603 mmHg 97%
03:00 +14°C° 0.1 mm 0 m/s 603 mmHg 97%
04:00 +13°C° 0.1 mm 0 m/s 603 mmHg 97%
05:00 +14°C° 0 mm 0 m/s 603 mmHg 96%
06:00 +14°C° 0 mm 0 m/s 603 mmHg 95%
07:00 +14°C° 0 mm 0 m/s 604 mmHg 95%
08:00 +15°C° 0.1 mm 0 m/s 604 mmHg 93%
09:00 +18°C° 0.1 mm 1 m/s 605 mmHg 90%
10:00 +19°C° 0.1 mm 1 m/s 605 mmHg 88%
11:00 +19°C° 0.5 mm 1 m/s 605 mmHg 88%
12:00 +19°C° 0.5 mm 1 m/s 604 mmHg 87%
13:00 +20°C° 0.5 mm 1 m/s 604 mmHg 87%
14:00 +19°C° 1.5 mm 1 m/s 604 mmHg 90%
15:00 +18°C° 1.5 mm 1 m/s 603 mmHg 94%
16:00 +15°C° 1.5 mm 0 m/s 603 mmHg 97%
17:00 +15°C° 0.9 mm 0 m/s 603 mmHg 97%
18:00 +15°C° 0.9 mm 0 m/s 603 mmHg 98%
19:00 +14°C° 0.9 mm 0 m/s 603 mmHg 98%
20:00 +14°C° 0.6 mm 0 m/s 604 mmHg 98%
21:00 +14°C° 0.6 mm 0 m/s 604 mmHg 98%
22:00 +14°C° 0.6 mm 0 m/s 604 mmHg 98%
23:00 +14°C° 1.3 mm 0 m/s 604 mmHg 98%

Depois de amanhã, 26 Julho, Segunda-feira

Tempo Temperatura Precipitação Vento Pressão Humidade
00:00 +14°C° 1.3 mm 0 m/s 604 mmHg 98%
01:00 +14°C° 1.3 mm 0 m/s 604 mmHg 98%
02:00 +14°C° 1.2 mm 0 m/s 603 mmHg 98%
03:00 +14°C° 1.2 mm 0 m/s 603 mmHg 98%
04:00 +13°C° 1.2 mm 0 m/s 603 mmHg 98%
05:00 +14°C° 0.5 mm 0 m/s 603 mmHg 98%
06:00 +14°C° 0.5 mm 0 m/s 603 mmHg 97%
07:00 +14°C° 0.5 mm 0 m/s 604 mmHg 97%
08:00 +16°C° 0.1 mm 1 m/s 604 mmHg 91%
09:00 +19°C° 0.1 mm 1 m/s 605 mmHg 85%
10:00 +20°C° 0.1 mm 1 m/s 605 mmHg 78%
11:00 +21°C° 0.6 mm 1 m/s 605 mmHg 78%
12:00 +21°C° 0.6 mm 1 m/s 605 mmHg 78%
13:00 +22°C° 0.6 mm 1 m/s 604 mmHg 78%
14:00 +21°C° 0.6 mm 1 m/s 604 mmHg 83%
15:00 +18°C° 0.6 mm 0 m/s 603 mmHg 88%
16:00 +17°C° 0.6 mm 0 m/s 602 mmHg 92%
17:00 +16°C° 0.9 mm 0 m/s 603 mmHg 94%
18:00 +16°C° 0.9 mm 1 m/s 603 mmHg 96%
19:00 +16°C° 0.9 mm 1 m/s 603 mmHg 98%
20:00 +15°C° 0.9 mm 1 m/s 603 mmHg 97%
21:00 +15°C° 0.9 mm 1 m/s 604 mmHg 97%
22:00 +14°C° 0.9 mm 1 m/s 604 mmHg 97%
23:00 +14°C° 0.6 mm 1 m/s 604 mmHg 97%

27 Julho, Terça-feira

Tempo Temperatura Precipitação Vento Pressão Humidade
00:00 +14°C° 0.6 mm 1 m/s 604 mmHg 97%
01:00 +14°C° 0.6 mm 1 m/s 603 mmHg 97%
02:00 +14°C° 0.3 mm 1 m/s 603 mmHg 97%
03:00 +14°C° 0.3 mm 1 m/s 603 mmHg 97%
04:00 +13°C° 0.3 mm 0 m/s 603 mmHg 96%
05:00 +13°C° 0.5 mm 0 m/s 603 mmHg 96%
06:00 +13°C° 0.5 mm 0 m/s 604 mmHg 96%
07:00 +14°C° 0.5 mm 0 m/s 604 mmHg 96%
08:00 +15°C° 0.3 mm 0 m/s 605 mmHg 92%
09:00 +18°C° 0.3 mm 1 m/s 605 mmHg 88%
10:00 +19°C° 0.3 mm 1 m/s 605 mmHg 84%
11:00 +19°C° 0.7 mm 1 m/s 605 mmHg 86%
12:00 +19°C° 0.7 mm 1 m/s 605 mmHg 87%
13:00 +19°C° 0.7 mm 1 m/s 604 mmHg 89%
14:00 +19°C° 1.1 mm 1 m/s 604 mmHg 89%
15:00 +17°C° 1.1 mm 0 m/s 603 mmHg 90%
16:00 +17°C° 1.1 mm 0 m/s 603 mmHg 90%
17:00 +16°C° 0.4 mm 0 m/s 603 mmHg 92%
18:00 +15°C° 0.4 mm 0 m/s 603 mmHg 94%
19:00 +15°C° 0.4 mm 0 m/s 603 mmHg 96%
20:00 +14°C° 1.4 mm 0 m/s 604 mmHg 97%
21:00 +14°C° 1.4 mm 0 m/s 604 mmHg 98%
22:00 +14°C° 1.4 mm 0 m/s 604 mmHg 99%
23:00 +14°C° 5 mm 0 m/s 604 mmHg 99%

28 Julho, Quarta-feira

Tempo Temperatura Precipitação Vento Pressão Humidade
00:00 +14°C° 5 mm 0 m/s 604 mmHg 98%
01:00 +13°C° 5 mm 0 m/s 603 mmHg 98%
02:00 +13°C° 2.7 mm 0 m/s 603 mmHg 98%
03:00 +13°C° 2.7 mm 0 m/s 603 mmHg 98%
04:00 +13°C° 2.7 mm 0 m/s 603 mmHg 98%
05:00 +13°C° 0.4 mm 0 m/s 603 mmHg 97%
06:00 +13°C° 0.4 mm 0 m/s 604 mmHg 97%
07:00 +13°C° 0.4 mm 0 m/s 604 mmHg 97%
08:00 +14°C° 0.1 mm 0 m/s 605 mmHg 92%
09:00 +18°C° 0.1 mm 1 m/s 605 mmHg 87%
10:00 +19°C° 0.1 mm 1 m/s 606 mmHg 83%
11:00 +19°C° 0.4 mm 1 m/s 605 mmHg 83%
12:00 +17°C° 0.4 mm 0 m/s 605 mmHg 83%
13:00 +17°C° 0.4 mm 0 m/s 605 mmHg 83%
14:00 +18°C° 1.1 mm 1 m/s 604 mmHg 85%
15:00 +16°C° 1.1 mm 1 m/s 603 mmHg 87%
16:00 +16°C° 1.1 mm 2 m/s 603 mmHg 89%
17:00 +15°C° 0.4 mm 1 m/s 603 mmHg 90%
18:00 +15°C° 0.4 mm 1 m/s 603 mmHg 91%
19:00 +14°C° 0.4 mm 1 m/s 603 mmHg 91%
20:00 +15°C° 0.1 mm 1 m/s 603 mmHg 89%
21:00 +15°C° 0.1 mm 1 m/s 604 mmHg 87%
22:00 +15°C° 0.1 mm 1 m/s 604 mmHg 84%
23:00 +15°C° 0 mm 1 m/s 603 mmHg 83%

29 Julho, Quinta-feira

Tempo Temperatura Precipitação Vento Pressão Humidade
00:00 +15°C° 0 mm 1 m/s 603 mmHg 82%
01:00 +15°C° 0 mm 1 m/s 603 mmHg 81%
02:00 +14°C° 0 mm 1 m/s 602 mmHg 81%
03:00 +14°C° 0 mm 1 m/s 602 mmHg 82%
04:00 +14°C° 0 mm 1 m/s 602 mmHg 82%
05:00 +14°C° 0 mm 1 m/s 603 mmHg 81%
06:00 +14°C° 0 mm 1 m/s 603 mmHg 80%
07:00 +15°C° 0 mm 1 m/s 603 mmHg 79%
08:00 +18°C° 0 mm 1 m/s 604 mmHg 71%
09:00 +20°C° 0 mm 1 m/s 605 mmHg 63%
10:00 +23°C° 0 mm 1 m/s 605 mmHg 56%
11:00 +23°C° 0.2 mm 1 m/s 605 mmHg 56%
12:00 +24°C° 0.2 mm 2 m/s 605 mmHg 57%
13:00 +24°C° 0.2 mm 2 m/s 605 mmHg 57%
14:00 +23°C° 1.2 mm 1 m/s 604 mmHg 62%
15:00 +22°C° 1.2 mm 1 m/s 604 mmHg 67%
16:00 +22°C° 1.2 mm 1 m/s 603 mmHg 71%
17:00 +20°C° 0.8 mm 1 m/s 603 mmHg 77%
18:00 +18°C° 0.8 mm 1 m/s 603 mmHg 83%
19:00 +16°C° 0.8 mm 1 m/s 603 mmHg 90%
20:00 +16°C° 0 mm 1 m/s 603 mmHg 88%
21:00 +15°C° 0 mm 1 m/s 604 mmHg 87%
22:00 +15°C° 0 mm 1 m/s 604 mmHg 86%
23:00 +15°C° 0 mm 1 m/s 604 mmHg 86%
Mostrar mais

Necessitamos do seu Consentimento

A Meteoprog e os seus Fornecedores de Serviços podem armazenar e aceder a dados pessoais como cookies, identificadores do dispositivo ou outras tecnologias semelhantes existentes no seu dispositivo e processar estes dados para personalizar conteúdos e anúncios, assim como funcionalidades nas redes sociais e análise de tráfego.

  • Armazenar e/ou aceder a informações no seu dispositivo

    Os cookies, identificadores do dispositivo ou outras informações podem ser armazenados ou acedidos no seu dispositivo, para os fins acima indicados.

  • Anúncios e conteúdos personalizados, medição de anúncios e conteúdos, dados sobre o público-alvo e desenvolvimento de produtos

    Os anúncios e os conteúdos podem ser personalizados com base num perfil. Podem ser adicionados dados adicionais para uma maior personalização dos anúncios e dos conteúdos. A eficácia dos anúncios e dos conteúdos pode ser medida. Podem ser obtidas informações sobre o público que visualizou os anúncios e os conteúdos. Estes dados podem ser usados para desenvolver ou melhorar sistemas, softwares ou a experiência do utilizador.

Ao clicar em "Eu concordo”, permitirá o uso de cookies, identificadores do dispositivo e web beacons mencionados ou outras tecnologias semelhantes. As configurações do navegador do seu dispositivo podem ser alteradas.

Para certos fins, podem ser invocados interesses legítimos ao invés de consentimento. Pode ler mais informação sobre este assunto na nossa Política de Privacidade e Cookies.